Location: Unspecified
(48.8582°N, 2.2947°E)
Time: 21:35:02
(UTC+02:00)

Daily predictions for brighter satellites

Satellite Brightness Start Highest point End
(mag) Time Altitude Azimuth Time Altitude Azimuth Time Altitude Azimuth
NOSS 0 Rocket 4.4 22:08:03 10° SW 22:14:15 70° WNW 22:20:27 10° NNE
deb Chang Zheng 4 3.7 22:11:20 10° NNE 22:15:47 88° ESE 22:20:11 10° SSW
Lacrosse 5 rocket 1.5 22:14:11 10° SSW 22:17:56 48° SE 22:21:54 10° ENE
SPOT 1/Viking Rocket 4.0 22:16:01 10° SE 22:20:58 48° ENE 22:25:54 10° N
Cosmos 494 Rocket 4.0 22:16:19 10° S 22:21:20 59° ESE 22:26:23 10° NNE
Cosmos 1602 Rocket 4.1 22:18:39 10° SSE 22:22:51 41° E 22:27:04 10° NNE
Cosmos 1666 2.7 22:20:11 10° N 22:24:07 85° E 22:28:01 10° S
PSLV R/B 3.2 22:21:31 10° SSE 22:24:36 88° W 22:27:44 10° NNW
Okean 2 3.4 22:22:52 10° S 22:27:03 83° E 22:31:16 10° N
Meteor 1-19 Rocket 4.5 22:21:42 10° SSW 22:27:19 75° WNW 22:32:56 10° N
Cosmos 1812 Rocket 4.0 22:24:47 10° N 22:29:02 48° ENE 22:33:17 10° SSE
Cosmos 1603 4.5 22:24:12 10° SSE 22:29:03 31° ESE 22:33:56 10° NE
Meteor 2-9 Rocket 4.4 22:24:25 10° NNW 22:30:03 79° W 22:35:48 10° S
MetOp-B 4.2 22:25:37 10° SSE 22:30:57 77° ENE 22:36:21 10° NNW
Cosmos 1743 4.5 22:29:07 10° NNW 22:32:35 32° W 22:36:01 10° SSW
Cosmos 1461 3.0 22:29:13 10° NW 22:33:38 89° NE 22:37:40 11° SE
Meteor 2-4 Rocket 3.9 22:27:54 10° S 22:33:47 87° W 22:39:46 10° NNE
Abrixas rocket 3.4 22:30:55 10° W 22:34:03 33° SSW 22:36:57 11° SE
Aureole 2 Rocket 2.9 22:30:19 10° S 22:34:06 45° ESE 22:37:34 10° NE
USA 245 4.4 22:28:30 10° SSE 22:34:33 63° ENE 22:39:46 10° N
BREEZE-M DEB (TANK) 4.2 22:35:38 10° W 22:37:13 14° SW 22:38:31 10° SSW
Cosmos 2333 Rocket 3.4 22:33:14 10° SW 22:38:41 47° NW 22:44:10 10° NNE
Cosmos 1302 Rocket 4.4 22:39:55 10° NNW 22:45:06 62° WSW 22:50:16 10° S
SPOT 5 3.1 22:41:49 10° S 22:46:12 58° WSW 22:50:29 10° NNW
H-2A R/B 3.8 22:43:04 10° SSW 22:46:47 29° W 22:50:35 10° NW
APEX 4.2 22:46:39 10° NW 22:50:16 46° WSW 22:54:52 10° S
Cosmos 1943 4.4 22:52:33 13° SE 22:56:11 23° E 23:00:30 10° NE
Cosmos 1515 4.4 22:53:46 13° SSE 22:56:51 38° E 23:00:28 10° NNE
Cosmos 1626 Rocket 3.6 22:52:27 10° S 22:56:54 87° E 23:01:21 10° N
CZ-4B R/B 3.5 22:52:26 10° NNE 22:57:27 72° ESE 23:02:35 10° S
SeaSat 1 3.8 22:54:53 10° S 22:59:21 34° WSW 23:03:50 10° NW
Lacrosse 5 3.1 22:56:01 10° W 23:00:54 46° NNW 23:05:48 10° NE
Tsikada Rocket 4.1 22:55:22 10° S 23:01:47 84° E 23:08:13 10° N
ATLAS 3B R/B 4.0 22:56:51 11° SSE 23:02:11 24° ESE 23:07:51 10° ENE
Landsat 7 4.1 23:00:12 15° SE 23:04:04 56° ENE 23:08:44 10° N
BREEZE M DEB (TANK) 2.9 23:08:28 10° WSW 23:10:07 18° SSW 23:10:25 17° S
Cosmos 1943 Rocket 3.5 23:05:19 10° NNW 23:10:07 29° NE 23:14:56 10° ESE
Atlas Centaur 2 4.3 23:05:34 10° SSW 23:10:21 17° SSE 23:12:30 15° SE
USA 234 4.0 23:05:50 13° SSE 23:11:24 41° SW 23:17:34 10° WNW
ATLAS CENTAUR R/B 3.1 23:07:12 10° WSW 23:12:02 45° NW 23:16:53 10° NNE
COSMOS 2455 3.2 23:06:32 10° S 23:12:08 42° ESE 23:17:45 10° NE
Cosmos 1953 Rocket 4.4 23:09:54 17° SE 23:12:37 34° E 23:16:37 10° NNE
DELTA 2 DEB (DPAF) 4.1 23:09:24 16° SSE 23:13:01 81° ENE 23:17:33 10° NNW
Cosmos 2237 Rocket 4.4 23:13:45 10° WSW 23:18:38 29° NW 23:23:33 10° NNE
Terra 2.1 23:16:28 18° SE 23:19:52 56° ENE 23:24:32 10° N
USA 81 4.0 23:16:22 10° N 23:21:42 85° E 23:26:01 16° S
Cosmos 1766 4.0 23:22:16 10° N 23:26:04 40° ENE 23:28:12 22° SE
Cosmos 407 Rocket 4.5 23:24:37 19° SE 23:27:15 29° E 23:31:43 10° NE
SL-8 R/B 3.6 23:26:31 10° W 23:31:23 84° S 23:36:15 10° E
SL-08 RB Rocket 4.1 23:28:45 16° S 23:32:24 61° WSW 23:36:55 10° NNW
YAOGAN 6 4.2 23:29:35 10° SSW 23:32:55 30° W 23:36:16 10° NNW
CZ-4C R/B 3.8 23:30:27 17° S 23:33:39 64° WSW 23:37:46 10° NNW
Cosmos 2369 Rocket 2.2 23:31:19 10° NNW 23:37:03 89° ENE 23:40:50 22° SSE
Cosmos-2242 3.8 23:34:48 10° N 23:38:58 39° ENE 23:41:11 23° SE
IGS 5A 3.4 23:40:06 25° SSE 23:42:29 81° ENE 23:46:41 10° NNW
Cosmos 1634 Rocket 4.1 23:37:03 10° NNW 23:43:13 74° W 23:48:08 17° S
Meteor 1-22 Rocket 4.2 23:38:58 10° NNW 23:44:28 87° W 23:48:22 21° S
SL-16 R/B 3.8 23:39:20 10° WSW 23:44:33 37° NW 23:49:47 10° NNE
Cosmos 1758 Rocket 3.6 23:44:43 24° SSE 23:47:12 61° E 23:51:32 10° NNE
ARGOS 4.1 23:43:40 12° SSW 23:48:20 43° W 23:53:31 10° NNW
H-2A R/B 2.0 23:48:36 22° S 23:51:49 74° WSW 23:56:54 10° NNW
CARTOSAT-1 3.7 23:49:15 24° S 23:51:50 70° WSW 23:56:11 10° NNW
Cosmos 1953 3.0 23:48:34 10° N 23:52:23 41° ENE 23:53:59 27° SE
